Hourly Data Report for October 29, 2018

TORONTO CITY
ONTARIO
Current Station Operator: ECCC - MSC

43°40'00.000" N
79°24'00.000" W
112.50 m
6158355
71508
XTO

Download Data

Hourly Data (October 2018)
Hourly Data Report for October 29, 2018
TIME
LST
Temp Definition
°C
Dew Point Definition
°C
Rel Hum Definition
%
Precip. Amount Definition
mm

Wind Dir Definition
10's deg

Wind Spd Definition
km/h
Visibility Definition
km
Stn Press Definition
kPa
Hmdx Definition


Wind Chill Definition


Weather Definition


00:00 6.0 4.0 87 0.0 LegendMM LegendMM   99.05     LegendNANA
01:00 5.6 3.1 84 0.0 LegendMM LegendMM   99.10     LegendNANA
02:00 5.4 2.1 79 0.0 LegendMM LegendMM   99.19     LegendNANA
03:00 5.2 1.6 78 0.0 LegendMM LegendMM   99.19     LegendNANA
04:00 5.3 1.8 78 0.0 LegendMM LegendMM   99.21     LegendNANA
05:00 5.4 2.1 79 0.0 LegendMM LegendMM   99.26     LegendNANA
06:00 5.5 2.4 81 0.0 LegendMM LegendMM   99.30     LegendNANA
07:00 5.6 3.1 84 0.0 LegendMM LegendMM   99.35     LegendNANA
08:00 6.0 2.1 76 0.0 LegendMM LegendMM   99.42     LegendNANA
09:00 6.0 1.2 72 0.0 LegendMM LegendMM   99.50     LegendNANA
10:00 5.7 2.3 79 0.2 LegendMM LegendMM   99.53     LegendNANA
11:00 6.8 3.0 77 0.0 LegendMM LegendMM   99.55     LegendNANA
12:00 7.2 1.2 66 0.0 LegendMM LegendMM   99.57     LegendNANA
13:00 7.7 -0.4 57 0.2 LegendMM LegendMM   99.61     LegendNANA
14:00 7.9 -0.9 54 0.0 LegendMM LegendMM   99.64     LegendNANA
15:00 8.9 -2.0 46 0.0 LegendMM LegendMM   99.68     LegendNANA
16:00 9.0 -3.9 40 0.0 LegendMM LegendMM   99.73     LegendNANA
17:00 8.2 -5.5 37 0.0 LegendMM LegendMM   99.84     LegendNANA
18:00 7.7 -4.9 40 0.0 LegendMM LegendMM   99.95     LegendNANA
19:00 7.0 -3.5 47 0.0 LegendMM LegendMM   100.02     LegendNANA
20:00 6.7 -2.7 51 0.0 LegendMM LegendMM   100.09     LegendNANA
21:00 5.5 -2.3 57 0.0 LegendMM LegendMM   100.14     LegendNANA
22:00 5.0 -2.0 60 0.0 LegendMM LegendMM   100.17     LegendNANA
23:00 3.6 -1.8 68 0.0 LegendMM LegendMM   100.22     LegendNANA

Notes on Data Quality.

Legend

  • E = Estimated
  • M = Missing
  • NA = Not Available*
  • [empty] = Indicates an unobserved value
Date modified: